STARLINK-32528, 61724

Orbit data source: Space-Track

STARLINK-32528, 61724 is a payload satellite owned by SpaceX/Seattle (US) in LEO that was launched on Wed, 30 Oct 2024 UTC via an FALCON 9 launch vehicle from the Air Force Eastern Test Range (AFETR). Payloads include a variety of satellites, spacecraft, and rockets equipped with specific instruments for various scientific and technological missions. These include communications satellites like Starlink; space stations such as the ISS; scientific satellites like the Hubble; Earth observation satellites from companies like Planet Labs, Umbra, and HawkEye 360; GPS; miniature CubeSats for education and research; and military/defense satellites.

Loading next visibility...
STARLINK-32528 details
Identifier
61724, 2024-196T
Orbit
LEO
Last TLE update16 hours ago
Origin
Flag of USSpaceX/Seattle (US)
ManufacturerSpaceX/Seattle
MissionOperational spacecraft
Bus & MotorSTARLINK V2M, Unknown motor
Mass730 kg wet, ~700 kg dry
Launch date (UTC)
2024-10-30 (2 months ago)
Launch vehicle
FALCON 9
Launch site
Air Force Eastern Test Range (AFETR)
Object type
Payload
Rocket body
Debris
Shape & HBRUnknown
Radar Cross SectionLarge (>1 m²)

Expand to show TLE details & history

TLE from 16 hours ago
0 STARLINK-32528
1 61724U 24196T   24361.23315491 -.00002533  00000-0 -53402-4 0  9999
2 61724  53.1622 340.2958 0001302 104.7118 255.4031 15.39604710  9690
Epoch: 2024-12-26T05:35Z
Definitive object data (Epoch: 2024-12-26T05:35:44.584Z)
Latitude-0.00003°
Longitude161.14452°
Altitude448.405 km
Speed7.644 km/s
True Right ascension22h 41m 10s
True Declination0° 00' 00"
Sunlit
Object was in daylight at TLE epoch
Visualization TLE readout
Latitude53.17852°
Longitude-117.69506°
Altitude452.991 km
Speed7.648 km/s
Apparent Right ascension06h 45m 45s
Apparent Declination10° 42' 04"
Sunlit
Object is in full shadow
Visualization observer readout
Local Sidereal Time20:55:59
Azimuth38.12° NE
Elevation-31.07°
Doppler factor1
Orbital elements
Apogee altitude448.423 km
Perigee altitude446.646 km
Semi-major axis6,825.671 km
Eccentricity0.0001302
Inclination53.1622°
RAAN340.2958°
Arg. of periapsis104.7118°
True anomaly255.38866°
Mean anomaly255.4031°
Eccentric anomaly255.39588°
Mean motion3.8488 °/min
BSTAR-0.000053402
Orbital period93.54 mins
Loading maneuver chart data...
Loading historical data...
Loading historical data...
Loading historical data...
Loading historical data...
Loading historical data...
Loading historical data...
Loading historical data...

STARLINK-32528 Visibility forecast

Observer location: undefined°, undefined

Span
Click to sort rows by Start time (UTC) header in descending order
Start Az.
Max El. time (UTC)
Max El. Az.
Max El.
End time (UTC)
End Az.
4 mins2024-12-27 00:26:58.409Z166.842° S2024-12-27 00:28:58.409Z126.945° SE17.446°2024-12-27 00:30:58.409Z88.505° E
5 mins2024-12-27 02:03:58.409Z259.272° W2024-12-27 02:05:58.409Z327.757° NNW36.239°2024-12-27 02:08:58.409Z38.656° NE
4 mins2024-12-27 08:36:58.409Z290.737° WNW2024-12-27 08:37:58.409Z260.154° W38.533°2024-12-27 08:40:58.409Z147.054° SSE
|